User: anonymous   Login
Location: Bothwell
(42.3833°S, 147.0000°E)
Time: 00:27:15
(UTC+10:00)
Language:

XW-2F - Orbit

View from above orbital plane
View from above orbital plane
View from above satellite
View from above satellite

Ground track
Ground track

The orbit data is extracted from the following two-line orbital elements,

1 40910U 15049M   22268.14516900  .00009647  00000-0  39348-3 0  9995
2 40910  97.4747 274.8394 0012245 355.7727  69.5613 15.24578816388366
Epoch (UTC): 25 September 2022 03:29:02
Eccentricity: 0.0012245
inclination: 97.4747°
perigee height: 483 km
apogee height: 500 km
right ascension of ascending node: 274.8394°
argument of perigee: 355.7727°
revolutions per day: 15.24578816
mean anomaly at epoch: 69.5613°
orbit number at epoch: 38836

The dashed part of the orbit path shows where the satellite is in the earth's shadow,  

DLR